Time,TemperatureF,DewpointF,PressureIn,WindDirection,WindDirectionDegrees,WindSpeedMPH,WindSpeedGustMPH,Humidity,HourlyPrecipIn,Conditions,Clouds,dailyrainin,SoftwareType,DateUTC
2013-09-08 00:02:00,57.0,56.0,-100.00,NE,35,1.0,3.0,97,0.18,,,1.16,,2013-09-08 08:02:00,
2013-09-08 00:11:00,57.0,56.0,-100.00,NE,35,1.0,3.0,97,0.18,,,1.16,,2013-09-08 08:11:00,
2013-09-08 00:22:00,57.0,56.0,-100.00,West,260,2.0,3.0,97,0.18,,,1.25,,2013-09-08 08:22:00,
2013-09-08 00:32:00,57.0,56.0,-100.00,West,260,2.0,3.0,97,0.18,,,1.25,,2013-09-08 08:32:00,
2013-09-08 00:42:00,57.0,56.0,-100.00,West,260,2.0,3.0,97,0.18,,,1.25,,2013-09-08 08:42:00,
2013-09-08 00:52:00,57.0,56.0,-100.00,West,270,1.0,4.0,97,0.16,,,1.32,,2013-09-08 08:52:00,
2013-09-08 01:02:00,57.0,56.0,-100.00,West,270,1.0,4.0,97,0.16,,,1.32,,2013-09-08 09:02:00,
2013-09-08 01:11:00,57.0,56.0,-100.00,West,270,1.0,4.0,97,0.16,,,1.32,,2013-09-08 09:11:00,
2013-09-08 01:22:00,58.0,57.0,-100.00,ESE,115,1.0,7.0,97,0.16,,,1.39,,2013-09-08 09:22:00,
2013-09-08 01:33:00,58.0,57.0,-100.00,ESE,115,1.0,7.0,97,0.16,,,1.39,,2013-09-08 09:33:00,
2013-09-08 01:43:00,58.0,57.0,-100.00,ESE,115,1.0,7.0,97,0.16,,,1.39,,2013-09-08 09:43:00,
2013-09-08 01:53:00,59.0,58.0,-100.00,ESE,110,3.0,16.0,97,0.17,,,1.49,,2013-09-08 09:53:00,
2013-09-08 02:03:00,59.0,58.0,-100.00,ESE,110,3.0,16.0,97,0.17,,,1.49,,2013-09-08 10:03:00,
2013-09-08 02:12:00,59.0,58.0,-100.00,ESE,110,3.0,16.0,97,0.17,,,1.49,,2013-09-08 10:12:00,
2013-09-08 02:23:00,59.0,58.0,-100.00,SSE,150,2.0,13.0,96,0.22,,,1.61,,2013-09-08 10:23:00,
2013-09-08 02:33:00,59.0,58.0,-100.00,SSE,150,2.0,13.0,96,0.22,,,1.61,,2013-09-08 10:33:00,
2013-09-08 02:42:00,59.0,58.0,-100.00,SSE,150,2.0,13.0,96,0.22,,,1.61,,2013-09-08 10:42:00,
2013-09-08 02:53:00,59.0,57.0,-100.00,SE,125,4.0,11.0,93,0.25,,,1.72,,2013-09-08 10:53:00,
2013-09-08 03:02:00,59.0,57.0,-100.00,SE,125,4.0,11.0,93,0.25,,,1.72,,2013-09-08 11:02:00,
2013-09-08 03:12:00,59.0,57.0,-100.00,SE,125,4.0,11.0,93,0.25,,,1.72,,2013-09-08 11:12:00,
2013-09-08 03:21:00,59.0,57.0,-100.00,ENE,60,6.0,11.0,93,0.29,,,1.86,,2013-09-08 11:21:00,
2013-09-08 03:33:00,59.0,57.0,-100.00,ENE,60,6.0,11.0,93,0.29,,,1.86,,2013-09-08 11:33:00,
2013-09-08 03:42:00,59.0,57.0,-100.00,ENE,60,6.0,11.0,93,0.29,,,1.86,,2013-09-08 11:42:00,
2013-09-08 03:52:00,60.0,56.0,-100.00,SSW,195,8.0,17.0,87,0.24,,,1.92,,2013-09-08 11:52:00,
2013-09-08 04:02:00,60.0,56.0,-100.00,SSW,195,8.0,17.0,87,0.24,,,1.92,,2013-09-08 12:02:00,
2013-09-08 04:12:00,60.0,56.0,-100.00,SSW,195,8.0,17.0,87,0.24,,,1.92,,2013-09-08 12:12:00,
2013-09-08 04:21:00,60.0,55.0,-100.00,East,80,6.0,14.0,82,0.17,,,1.99,,2013-09-08 12:21:00,
2013-09-08 04:32:00,60.0,55.0,-100.00,East,80,6.0,14.0,82,0.17,,,1.99,,2013-09-08 12:32:00,
2013-09-08 04:42:00,60.0,55.0,-100.00,East,80,6.0,14.0,82,0.17,,,1.99,,2013-09-08 12:42:00,
2013-09-08 04:52:00,60.0,51.0,-100.00,NE,55,3.0,11.0,74,0.17,,,2.06,,2013-09-08 12:52:00,
2013-09-08 05:01:00,60.0,51.0,-100.00,NE,55,3.0,11.0,74,0.17,,,2.06,,2013-09-08 13:01:00,
2013-09-08 05:11:00,60.0,51.0,-100.00,NE,55,3.0,11.0,74,0.17,,,2.06,,2013-09-08 13:11:00,
2013-09-08 05:22:00,58.0,53.0,-100.00,East,90,4.0,9.0,86,0.14,,,2.11,,2013-09-08 13:22:00,
2013-09-08 05:32:00,58.0,53.0,-100.00,East,90,4.0,9.0,86,0.14,,,2.11,,2013-09-08 13:32:00,
2013-09-08 05:42:00,58.0,53.0,-100.00,East,90,4.0,9.0,86,0.14,,,2.11,,2013-09-08 13:42:00,
2013-09-08 05:52:00,59.0,51.0,-100.00,SE,130,4.0,16.0,75,0.12,,,2.15,,2013-09-08 13:52:00,
2013-09-08 06:02:00,59.0,51.0,-100.00,SE,130,4.0,16.0,75,0.12,,,2.15,,2013-09-08 14:02:00,
2013-09-08 06:11:00,59.0,51.0,-100.00,SE,130,4.0,16.0,75,0.12,,,2.15,,2013-09-08 14:11:00,
2013-09-08 06:22:00,58.0,51.0,-100.00,ENE,60,1.0,5.0,77,0.06,,,2.13,,2013-09-08 14:22:00,
2013-09-08 06:31:00,58.0,51.0,-100.00,ENE,60,1.0,5.0,77,0.06,,,2.13,,2013-09-08 14:31:00,
2013-09-08 06:42:00,58.0,51.0,-100.00,ENE,60,1.0,5.0,77,0.06,,,2.13,,2013-09-08 14:42:00,
2013-09-08 06:52:00,57.0,52.0,-100.00,East,85,2.0,6.0,83,0.00,,,2.13,,2013-09-08 14:52:00,
2013-09-08 07:02:00,57.0,52.0,-100.00,East,85,2.0,6.0,83,0.00,,,2.13,,2013-09-08 15:02:00,
2013-09-08 07:12:00,57.0,52.0,-100.00,East,85,2.0,6.0,83,0.00,,,2.13,,2013-09-08 15:12:00,
2013-09-08 07:23:00,57.0,50.0,-100.00,ESE,120,3.0,18.0,78,0.00,,,2.13,,2013-09-08 15:23:00,
2013-09-08 07:34:00,57.0,50.0,-100.00,ESE,120,3.0,18.0,78,0.00,,,2.13,,2013-09-08 15:34:00,
2013-09-08 07:45:00,57.0,50.0,-100.00,ESE,120,3.0,18.0,78,0.00,,,2.13,,2013-09-08 15:45:00,
2013-09-08 07:54:00,56.0,50.0,-100.00,ESE,120,4.0,14.0,81,0.03,,,2.16,,2013-09-08 15:54:00,
2013-09-08 08:04:00,56.0,50.0,-100.00,ESE,120,4.0,14.0,81,0.03,,,2.16,,2013-09-08 16:04:00,
2013-09-08 08:14:00,56.0,50.0,-100.00,ESE,120,4.0,14.0,81,0.03,,,2.16,,2013-09-08 16:14:00,
2013-09-08 08:23:00,56.0,50.0,-100.00,East,85,4.0,11.0,81,0.03,,,2.16,,2013-09-08 16:23:00,
2013-09-08 08:34:00,56.0,50.0,-100.00,East,85,4.0,11.0,81,0.03,,,2.16,,2013-09-08 16:34:00,
2013-09-08 08:43:00,56.0,50.0,-100.00,East,85,4.0,11.0,81,0.03,,,2.16,,2013-09-08 16:43:00,
2013-09-08 08:53:00,56.0,50.0,-100.00,ENE,60,4.0,14.0,79,0.00,,,2.16,,2013-09-08 16:53:00,
2013-09-08 09:03:00,56.0,50.0,-100.00,ENE,60,4.0,14.0,79,0.00,,,2.16,,2013-09-08 17:03:00,
2013-09-08 09:12:00,56.0,50.0,-100.00,ENE,60,4.0,14.0,79,0.00,,,2.16,,2013-09-08 17:12:00,
2013-09-08 09:23:00,56.0,49.0,-100.00,East,85,5.0,17.0,77,0.00,,,2.16,,2013-09-08 17:23:00,
2013-09-08 09:34:00,56.0,49.0,-100.00,East,85,5.0,17.0,77,0.00,,,2.16,,2013-09-08 17:34:00,
2013-09-08 09:43:00,56.0,49.0,-100.00,East,85,5.0,17.0,77,0.00,,,2.16,,2013-09-08 17:43:00,
2013-09-08 09:53:00,56.0,49.0,-100.00,ESE,115,7.0,17.0,75,0.00,,,2.16,,2013-09-08 17:53:00,
2013-09-08 10:02:00,56.0,49.0,-100.00,ESE,115,7.0,17.0,75,0.00,,,2.16,,2013-09-08 18:02:00,
2013-09-08 10:13:00,56.0,49.0,-100.00,ESE,115,7.0,17.0,75,0.00,,,2.16,,2013-09-08 18:13:00,
2013-09-08 10:22:00,57.0,49.0,-100.00,ESE,120,8.0,17.0,75,0.00,,,2.16,,2013-09-08 18:22:00,
2013-09-08 10:32:00,57.0,49.0,-100.00,ESE,120,8.0,17.0,75,0.00,,,2.16,,2013-09-08 18:32:00,
2013-09-08 10:42:00,57.0,49.0,-100.00,ESE,120,8.0,17.0,75,0.00,,,2.16,,2013-09-08 18:42:00,
2013-09-08 10:52:00,57.0,48.0,-100.00,ENE,60,2.0,14.0,73,0.00,,,2.16,,2013-09-08 18:52:00,
2013-09-08 11:01:00,57.0,48.0,-100.00,ENE,60,2.0,14.0,73,0.00,,,2.16,,2013-09-08 19:01:00,
2013-09-08 11:12:00,57.0,48.0,-100.00,ENE,60,2.0,14.0,73,0.00,,,2.16,,2013-09-08 19:12:00,
2013-09-08 11:22:00,59.0,48.0,-100.00,ESE,115,7.0,14.0,67,0.00,,,2.16,,2013-09-08 19:22:00,
2013-09-08 11:32:00,59.0,48.0,-100.00,ESE,115,7.0,14.0,67,0.00,,,2.16,,2013-09-08 19:32:00,
2013-09-08 11:42:00,59.0,48.0,-100.00,ESE,115,7.0,14.0,67,0.00,,,2.16,,2013-09-08 19:42:00,
2013-09-08 11:52:00,57.0,48.0,-100.00,SSE,150,6.0,16.0,70,0.00,,,2.16,,2013-09-08 19:52:00,
2013-09-08 12:03:00,57.0,48.0,-100.00,SSE,150,6.0,16.0,70,0.00,,,2.16,,2013-09-08 20:03:00,
2013-09-08 12:11:00,57.0,48.0,-100.00,SSE,150,6.0,16.0,70,0.00,,,2.16,,2013-09-08 20:11:00,
2013-09-08 12:22:00,57.0,48.0,-100.00,SE,125,4.0,11.0,70,0.00,,,2.16,,2013-09-08 20:22:00,
2013-09-08 12:32:00,57.0,48.0,-100.00,SE,125,4.0,11.0,70,0.00,,,2.16,,2013-09-08 20:32:00,
2013-09-08 12:42:00,57.0,48.0,-100.00,SE,125,4.0,11.0,70,0.00,,,2.16,,2013-09-08 20:42:00,
2013-09-08 12:53:00,60.0,48.0,-100.00,ENE,75,6.0,16.0,65,0.00,,,2.16,,2013-09-08 20:53:00,
2013-09-08 13:02:00,60.0,48.0,-100.00,ENE,75,6.0,16.0,65,0.00,,,2.16,,2013-09-08 21:02:00,
2013-09-08 13:12:00,60.0,48.0,-100.00,ENE,75,6.0,16.0,65,0.00,,,2.16,,2013-09-08 21:12:00,
2013-09-08 13:22:00,59.0,47.0,-100.00,ESE,120,4.0,10.0,66,0.00,,,2.14,,2013-09-08 21:22:00,
2013-09-08 13:34:00,59.0,47.0,-100.00,ESE,120,4.0,10.0,66,0.00,,,2.14,,2013-09-08 21:34:00,
2013-09-08 13:43:00,59.0,47.0,-100.00,ESE,120,4.0,10.0,66,0.00,,,2.14,,2013-09-08 21:43:00,
2013-09-08 13:54:00,58.0,47.0,-100.00,SE,125,4.0,12.0,67,0.00,,,2.14,,2013-09-08 21:54:00,
2013-09-08 14:04:00,58.0,47.0,-100.00,SE,125,4.0,12.0,67,0.00,,,2.14,,2013-09-08 22:04:00,
2013-09-08 14:13:00,58.0,47.0,-100.00,SE,125,4.0,12.0,67,0.00,,,2.14,,2013-09-08 22:13:00,
2013-09-08 14:24:00,58.0,48.0,-100.00,ESE,115,6.0,12.0,68,0.00,,,2.14,,2013-09-08 22:24:00,
2013-09-08 14:33:00,58.0,48.0,-100.00,ESE,115,6.0,12.0,68,0.00,,,2.14,,2013-09-08 22:33:00,
2013-09-08 14:43:00,58.0,48.0,-100.00,ESE,115,6.0,12.0,68,0.00,,,2.14,,2013-09-08 22:43:00,
2013-09-08 14:53:00,59.0,48.0,-100.00,ESE,110,3.0,11.0,66,0.00,,,2.14,,2013-09-08 22:53:00,
2013-09-08 15:04:00,59.0,48.0,-100.00,ESE,110,3.0,11.0,66,0.00,,,2.14,,2013-09-08 23:04:00,
2013-09-08 15:12:00,59.0,48.0,-100.00,ESE,110,3.0,11.0,66,0.00,,,2.14,,2013-09-08 23:12:00,
2013-09-08 15:22:00,60.0,48.0,-100.00,East,85,2.0,6.0,65,0.00,,,2.13,,2013-09-08 23:22:00,
2013-09-08 15:34:00,60.0,48.0,-100.00,East,85,2.0,6.0,65,0.00,,,2.13,,2013-09-08 23:34:00,
2013-09-08 15:42:00,60.0,48.0,-100.00,East,85,2.0,6.0,65,0.00,,,2.13,,2013-09-08 23:42:00,
2013-09-08 15:52:00,60.0,48.0,-100.00,SSE,155,2.0,7.0,66,0.00,,,2.08,,2013-09-08 23:52:00,
2013-09-08 16:02:00,60.0,48.0,-100.00,SSE,155,2.0,7.0,66,0.00,,,2.08,,2013-09-09 00:02:00,
2013-09-08 16:11:00,60.0,48.0,-100.00,SSE,155,2.0,7.0,66,0.00,,,2.08,,2013-09-09 00:11:00,
2013-09-08 16:21:00,59.0,50.0,-100.00,ENE,60,1.0,3.0,71,0.00,,,2.06,,2013-09-09 00:21:00,
2013-09-08 16:32:00,59.0,50.0,-100.00,ENE,60,1.0,3.0,71,0.00,,,2.06,,2013-09-09 00:32:00,
2013-09-08 16:42:00,59.0,50.0,-100.00,ENE,60,1.0,3.0,71,0.00,,,2.06,,2013-09-09 00:42:00,
2013-09-08 16:52:00,58.0,47.0,-100.00,SE,140,2.0,9.0,69,0.00,,,2.02,,2013-09-09 00:52:00,
2013-09-08 17:01:00,58.0,47.0,-100.00,SE,140,2.0,9.0,69,0.00,,,2.02,,2013-09-09 01:01:00,
2013-09-08 17:12:00,58.0,47.0,-100.00,SE,140,2.0,9.0,69,0.00,,,2.02,,2013-09-09 01:12:00,
2013-09-08 17:21:00,59.0,49.0,-100.00,ESE,115,2.0,6.0,68,0.00,,,1.98,,2013-09-09 01:21:00,
2013-09-08 17:32:00,59.0,49.0,-100.00,ESE,115,2.0,6.0,68,0.00,,,1.98,,2013-09-09 01:32:00,
2013-09-08 17:42:00,59.0,49.0,-100.00,ESE,115,2.0,6.0,68,0.00,,,1.98,,2013-09-09 01:42:00,
2013-09-08 17:52:00,60.0,48.0,-100.00,SE,145,3.0,12.0,64,0.00,,,1.92,,2013-09-09 01:52:00,
2013-09-08 18:02:00,60.0,48.0,-100.00,SE,145,3.0,12.0,64,0.00,,,1.92,,2013-09-09 02:02:00,
2013-09-08 18:11:00,60.0,48.0,-100.00,SE,145,3.0,12.0,64,0.00,,,1.92,,2013-09-09 02:11:00,
2013-09-08 18:21:00,59.0,47.0,-100.00,ESE,110,4.0,13.0,65,0.00,,,1.88,,2013-09-09 02:21:00,
2013-09-08 18:32:00,59.0,47.0,-100.00,ESE,110,4.0,13.0,65,0.00,,,1.88,,2013-09-09 02:32:00,
2013-09-08 18:42:00,59.0,47.0,-100.00,ESE,110,4.0,13.0,65,0.00,,,1.88,,2013-09-09 02:42:00,
2013-09-08 18:52:00,58.0,47.0,-100.00,ESE,115,6.0,12.0,67,0.00,,,1.82,,2013-09-09 02:52:00,
2013-09-08 19:02:00,58.0,47.0,-100.00,ESE,115,6.0,12.0,67,0.00,,,1.82,,2013-09-09 03:02:00,
2013-09-08 19:12:00,58.0,47.0,-100.00,ESE,115,6.0,12.0,67,0.00,,,1.82,,2013-09-09 03:12:00,
2013-09-08 19:22:00,56.0,47.0,-100.00,SE,145,1.0,9.0,71,0.00,,,1.80,,2013-09-09 03:22:00,
2013-09-08 19:34:00,56.0,47.0,-100.00,SE,145,1.0,9.0,71,0.00,,,1.80,,2013-09-09 03:34:00,
2013-09-08 19:44:00,56.0,47.0,-100.00,SE,145,1.0,9.0,71,0.00,,,1.80,,2013-09-09 03:44:00,
2013-09-08 19:55:00,55.0,47.0,-100.00,SE,140,2.0,7.0,77,0.00,,,1.75,,2013-09-09 03:55:00,
2013-09-08 20:03:00,55.0,47.0,-100.00,SE,140,2.0,7.0,77,0.00,,,1.75,,2013-09-09 04:03:00,
2013-09-08 20:14:00,55.0,47.0,-100.00,SE,140,2.0,7.0,77,0.00,,,1.75,,2013-09-09 04:14:00,
2013-09-08 20:24:00,53.0,48.0,-100.00,SSE,160,2.0,7.0,84,0.00,,,1.69,,2013-09-09 04:24:00,
2013-09-08 20:33:00,53.0,48.0,-100.00,SSE,160,2.0,7.0,84,0.00,,,1.69,,2013-09-09 04:33:00,
2013-09-08 20:43:00,53.0,48.0,-100.00,SSE,160,2.0,7.0,84,0.00,,,1.69,,2013-09-09 04:43:00,
2013-09-08 20:54:00,54.0,48.0,-100.00,SE,135,3.0,7.0,80,0.00,,,1.64,,2013-09-09 04:54:00,
2013-09-08 21:03:00,54.0,48.0,-100.00,SE,135,3.0,7.0,80,0.00,,,1.64,,2013-09-09 05:03:00,
2013-09-08 21:13:00,54.0,48.0,-100.00,SE,135,3.0,7.0,80,0.00,,,1.64,,2013-09-09 05:13:00,
2013-09-08 21:23:00,52.0,48.0,-100.00,North,10,0.0,1.0,87,0.00,,,1.58,,2013-09-09 05:23:00,
2013-09-08 21:34:00,52.0,48.0,-100.00,North,10,0.0,1.0,87,0.00,,,1.58,,2013-09-09 05:34:00,
2013-09-08 21:43:00,52.0,48.0,-100.00,North,10,0.0,1.0,87,0.00,,,1.58,,2013-09-09 05:43:00,
2013-09-08 21:53:00,50.0,48.0,-100.00,NNE,20,1.0,2.0,93,0.00,,,1.54,,2013-09-09 05:53:00,
2013-09-08 22:02:00,50.0,48.0,-100.00,NNE,20,1.0,2.0,93,0.00,,,1.54,,2013-09-09 06:02:00,
2013-09-08 22:12:00,50.0,48.0,-100.00,NNE,20,1.0,2.0,93,0.00,,,1.54,,2013-09-09 06:12:00,
2013-09-08 22:21:00,48.0,46.0,-100.00,West,275,1.0,3.0,94,0.00,,,1.48,,2013-09-09 06:21:00,
2013-09-08 22:32:00,48.0,46.0,-100.00,West,275,1.0,3.0,94,0.00,,,1.48,,2013-09-09 06:32:00,
2013-09-08 22:42:00,48.0,46.0,-100.00,West,275,1.0,3.0,94,0.00,,,1.48,,2013-09-09 06:42:00,
2013-09-08 22:52:00,47.0,46.0,-100.00,NE,50,1.0,1.0,95,0.00,,,1.46,,2013-09-09 06:52:00,
2013-09-08 23:01:00,47.0,46.0,-100.00,NE,50,1.0,1.0,95,0.00,,,1.46,,2013-09-09 07:01:00,
2013-09-08 23:11:00,47.0,46.0,-100.00,NE,50,1.0,1.0,95,0.00,,,1.46,,2013-09-09 07:11:00,
2013-09-08 23:21:00,47.0,45.0,-100.00,WSW,240,1.0,2.0,96,0.00,,,1.42,,2013-09-09 07:21:00,
2013-09-08 23:32:00,47.0,45.0,-100.00,WSW,240,1.0,2.0,96,0.00,,,1.42,,2013-09-09 07:32:00,
2013-09-08 23:43:00,47.0,45.0,-100.00,WSW,240,1.0,2.0,96,0.00,,,1.42,,2013-09-09 07:43:00,
2013-09-08 23:52:00,46.0,45.0,-100.00,North,0,1.0,2.0,96,0.00,,,1.37,,2013-09-09 07:52:00,